Year,Month,Day,Hour,Minute,Value (Times are PST for temperature in C)
2016,07,24,00,00,13.00
2016,07,24,00,01,13.00
2016,07,24,00,02,13.00
2016,07,24,00,03,13.00
2016,07,24,00,04,13.00
2016,07,24,00,05,13.00
2016,07,24,00,06,13.00
2016,07,24,00,07,13.00
2016,07,24,00,08,13.00
2016,07,24,00,09,13.00
2016,07,24,00,10,13.00
2016,07,24,00,11,13.00
2016,07,24,00,12,13.00
2016,07,24,00,13,13.10
2016,07,24,00,14,13.10
2016,07,24,00,15,13.10
2016,07,24,00,16,13.10
2016,07,24,00,17,13.10
2016,07,24,00,18,13.20
2016,07,24,00,19,13.20
2016,07,24,00,20,13.20
2016,07,24,00,21,13.20
2016,07,24,00,22,13.20
2016,07,24,00,23,13.20
2016,07,24,00,24,13.20
2016,07,24,00,25,13.20
2016,07,24,00,26,13.20
2016,07,24,00,27,13.20
2016,07,24,00,28,13.20
2016,07,24,00,29,13.20
2016,07,24,00,30,13.20
2016,07,24,00,31,13.20
2016,07,24,00,32,13.20
2016,07,24,00,33,13.20
2016,07,24,00,34,13.20
2016,07,24,00,35,13.20
2016,07,24,00,36,13.20
2016,07,24,00,37,13.20
2016,07,24,00,38,13.20
2016,07,24,00,39,13.20
2016,07,24,00,40,13.20
2016,07,24,00,41,13.20
2016,07,24,00,42,13.20
2016,07,24,00,43,13.30
2016,07,24,00,44,13.30
2016,07,24,00,45,13.30
2016,07,24,00,46,13.30
2016,07,24,00,47,13.30
2016,07,24,00,48,13.30
2016,07,24,00,49,13.30
2016,07,24,00,50,13.40
2016,07,24,00,51,13.40
2016,07,24,00,52,13.40
2016,07,24,00,53,13.40
2016,07,24,00,54,13.50
2016,07,24,00,55,13.50
2016,07,24,00,56,13.50
2016,07,24,00,57,13.50
2016,07,24,00,58,13.60
2016,07,24,00,59,13.60
2016,07,24,01,00,13.60
2016,07,24,01,01,13.60
2016,07,24,01,02,13.60
2016,07,24,01,03,13.60
2016,07,24,01,04,13.60
2016,07,24,01,05,13.60
2016,07,24,01,06,13.60
2016,07,24,01,07,13.60
2016,07,24,01,08,13.60
2016,07,24,01,09,13.60
2016,07,24,01,10,13.60
2016,07,24,01,11,13.60
2016,07,24,01,12,13.50
2016,07,24,01,13,13.50
2016,07,24,01,14,13.50
2016,07,24,01,15,13.50
2016,07,24,01,16,13.50
2016,07,24,01,17,13.50
2016,07,24,01,18,13.50
2016,07,24,01,19,13.50
2016,07,24,01,20,13.40
2016,07,24,01,21,13.40
2016,07,24,01,22,13.40
2016,07,24,01,23,13.40
2016,07,24,01,24,13.40
2016,07,24,01,25,13.30
2016,07,24,01,26,13.30
2016,07,24,01,27,13.30
2016,07,24,01,28,13.30
2016,07,24,01,29,13.30
2016,07,24,01,30,13.30
2016,07,24,01,31,13.30
2016,07,24,01,32,13.30
2016,07,24,01,33,13.20
2016,07,24,01,34,13.20
2016,07,24,01,35,13.20
2016,07,24,01,36,13.20
2016,07,24,01,37,13.20
2016,07,24,01,38,13.10
2016,07,24,01,39,13.10
2016,07,24,01,40,13.10
2016,07,24,01,41,13.10
2016,07,24,01,42,13.10
2016,07,24,01,43,13.10
2016,07,24,01,44,13.10
2016,07,24,01,45,13.10
2016,07,24,01,46,13.10
2016,07,24,01,47,13.10
2016,07,24,01,48,13.00
2016,07,24,01,49,13.00
2016,07,24,01,50,13.00
2016,07,24,01,51,13.00
2016,07,24,01,52,13.00
2016,07,24,01,53,13.00
2016,07,24,01,54,13.00
2016,07,24,01,55,12.90
2016,07,24,01,56,12.90
2016,07,24,01,57,12.90
2016,07,24,01,58,12.90
2016,07,24,01,59,12.90
2016,07,24,02,00,12.90
2016,07,24,02,01,12.90
2016,07,24,02,02,12.90
2016,07,24,02,03,12.90
2016,07,24,02,04,12.90
2016,07,24,02,05,12.90
2016,07,24,02,06,12.90
2016,07,24,02,07,12.90
2016,07,24,02,08,12.90
2016,07,24,02,09,12.90
2016,07,24,02,10,12.90
2016,07,24,02,11,12.90
2016,07,24,02,12,12.90
2016,07,24,02,13,12.90
2016,07,24,02,14,12.90
2016,07,24,02,15,12.90
2016,07,24,02,16,12.90
2016,07,24,02,17,12.90
2016,07,24,02,18,12.90
2016,07,24,02,19,12.90
2016,07,24,02,20,12.80
2016,07,24,02,21,12.80
2016,07,24,02,22,12.80
2016,07,24,02,23,12.80
2016,07,24,02,24,12.80
2016,07,24,02,25,12.80
2016,07,24,02,26,12.80
2016,07,24,02,27,12.80
2016,07,24,02,28,12.80
2016,07,24,02,29,12.80
2016,07,24,02,30,12.80
2016,07,24,02,31,12.80
2016,07,24,02,32,12.80
2016,07,24,02,33,12.80
2016,07,24,02,34,12.80
2016,07,24,02,35,12.80
2016,07,24,02,36,12.80
2016,07,24,02,37,12.80
2016,07,24,02,38,12.90
2016,07,24,02,39,12.90
2016,07,24,02,40,12.90
2016,07,24,02,41,12.90
2016,07,24,02,42,12.90
2016,07,24,02,43,12.90
2016,07,24,02,44,12.90
2016,07,24,02,45,12.90
2016,07,24,02,46,12.80
2016,07,24,02,47,12.80
2016,07,24,02,48,12.80
2016,07,24,02,49,12.80
2016,07,24,02,50,12.80
2016,07,24,02,51,12.80
2016,07,24,02,52,12.80
2016,07,24,02,53,12.80
2016,07,24,02,54,12.80
2016,07,24,02,55,12.70
2016,07,24,02,56,12.70
2016,07,24,02,57,12.70
2016,07,24,02,58,12.70
2016,07,24,02,59,12.70
2016,07,24,03,00,12.70
2016,07,24,03,01,12.70
2016,07,24,03,02,12.70
2016,07,24,03,03,12.70
2016,07,24,03,04,12.70
2016,07,24,03,05,12.70
2016,07,24,03,06,12.70
2016,07,24,03,07,12.70
2016,07,24,03,08,12.60
2016,07,24,03,09,12.60
2016,07,24,03,10,12.60
2016,07,24,03,11,12.60
2016,07,24,03,12,12.60
2016,07,24,03,13,12.60
2016,07,24,03,14,12.60
2016,07,24,03,15,12.60
2016,07,24,03,16,12.60
2016,07,24,03,17,12.60
2016,07,24,03,18,12.60
2016,07,24,03,19,12.70
2016,07,24,03,20,12.70
2016,07,24,03,21,12.70
2016,07,24,03,22,12.70
2016,07,24,03,23,12.80
2016,07,24,03,24,12.80
2016,07,24,03,25,12.80
2016,07,24,03,26,12.80
2016,07,24,03,27,12.80
2016,07,24,03,28,12.80
2016,07,24,03,29,12.90
2016,07,24,03,30,12.90
2016,07,24,03,31,12.90
2016,07,24,03,32,12.90
2016,07,24,03,33,13.00
2016,07,24,03,34,13.00
2016,07,24,03,35,13.00
2016,07,24,03,36,13.00
2016,07,24,03,37,13.00
2016,07,24,03,38,13.00
2016,07,24,03,39,13.00
2016,07,24,03,40,13.00
2016,07,24,03,41,13.00
2016,07,24,03,42,13.00
2016,07,24,03,43,13.00
2016,07,24,03,44,13.10
2016,07,24,03,45,13.10
2016,07,24,03,46,13.10
2016,07,24,03,47,13.10
2016,07,24,03,48,13.10
2016,07,24,03,49,13.10
2016,07,24,03,50,13.10
2016,07,24,03,51,13.10
2016,07,24,03,52,13.10
2016,07,24,03,53,13.10
2016,07,24,03,54,13.10
2016,07,24,03,55,13.10
2016,07,24,03,56,13.10
2016,07,24,03,57,13.10
2016,07,24,03,58,13.10
2016,07,24,03,59,13.10
2016,07,24,04,00,13.10
2016,07,24,04,01,13.10
2016,07,24,04,02,13.10
2016,07,24,04,03,13.00
2016,07,24,04,04,13.00
2016,07,24,04,05,13.00
2016,07,24,04,06,13.00
2016,07,24,04,07,13.00
2016,07,24,04,08,13.00
2016,07,24,04,09,13.00
2016,07,24,04,10,13.00
2016,07,24,04,11,13.00
2016,07,24,04,12,12.90
2016,07,24,04,13,12.90
2016,07,24,04,14,12.90
2016,07,24,04,15,12.90
2016,07,24,04,16,12.90
2016,07,24,04,17,12.90
2016,07,24,04,18,12.90
2016,07,24,04,19,12.80
2016,07,24,04,20,12.80
2016,07,24,04,21,12.80
2016,07,24,04,22,12.80
2016,07,24,04,23,12.80
2016,07,24,04,24,12.80
2016,07,24,04,25,12.80
2016,07,24,04,26,12.80
2016,07,24,04,27,12.70
2016,07,24,04,28,12.70
2016,07,24,04,29,12.70
2016,07,24,04,30,12.70
2016,07,24,04,31,12.60
2016,07,24,04,32,12.60
2016,07,24,04,33,12.60
2016,07,24,04,34,12.60
2016,07,24,04,35,12.50
2016,07,24,04,36,12.50
2016,07,24,04,37,12.50
2016,07,24,04,38,12.50
2016,07,24,04,39,12.40
2016,07,24,04,40,12.40
2016,07,24,04,41,12.40
2016,07,24,04,42,12.40
2016,07,24,04,43,12.40
2016,07,24,04,44,12.30
2016,07,24,04,45,12.30
2016,07,24,04,46,12.30
2016,07,24,04,47,12.30
2016,07,24,04,48,12.30
2016,07,24,04,49,12.30
2016,07,24,04,50,12.30
2016,07,24,04,51,12.30
2016,07,24,04,52,12.30
2016,07,24,04,53,12.30
2016,07,24,04,54,12.30
2016,07,24,04,55,12.20
2016,07,24,04,56,12.20
2016,07,24,04,57,12.20
2016,07,24,04,58,12.20
2016,07,24,04,59,12.10
2016,07,24,05,00,12.10
2016,07,24,05,01,12.10
2016,07,24,05,02,12.10
2016,07,24,05,03,12.10
2016,07,24,05,04,12.00
2016,07,24,05,05,12.00
2016,07,24,05,06,12.00
2016,07,24,05,07,12.00
2016,07,24,05,08,12.00
2016,07,24,05,09,12.00
2016,07,24,05,10,12.00
2016,07,24,05,11,12.00
2016,07,24,05,12,12.00
2016,07,24,05,13,12.00
2016,07,24,05,14,12.00
2016,07,24,05,15,12.00
2016,07,24,05,16,12.00
2016,07,24,05,17,12.00
2016,07,24,05,18,12.00
2016,07,24,05,19,12.00
2016,07,24,05,20,12.00
2016,07,24,05,21,12.00
2016,07,24,05,22,12.00
2016,07,24,05,23,12.00
2016,07,24,05,24,12.00
2016,07,24,05,25,12.00
2016,07,24,05,26,12.00
2016,07,24,05,27,12.00
2016,07,24,05,28,12.00
2016,07,24,05,29,12.00
2016,07,24,05,30,12.00
2016,07,24,05,31,12.00
2016,07,24,05,32,12.00
2016,07,24,05,33,12.00
2016,07,24,05,34,12.00
2016,07,24,05,35,12.00
2016,07,24,05,36,12.00
2016,07,24,05,37,12.00
2016,07,24,05,38,12.00
2016,07,24,05,39,12.00
2016,07,24,05,40,12.00
2016,07,24,05,41,12.00
2016,07,24,05,42,12.00
2016,07,24,05,43,12.00
2016,07,24,05,44,12.10
2016,07,24,05,45,12.10
2016,07,24,05,46,12.10
2016,07,24,05,47,12.10
2016,07,24,05,48,12.10
2016,07,24,05,49,12.10
2016,07,24,05,50,12.10
2016,07,24,05,51,12.10
2016,07,24,05,52,12.10
2016,07,24,05,53,12.10
2016,07,24,05,54,12.10
2016,07,24,05,55,12.10
2016,07,24,05,56,12.10
2016,07,24,05,57,12.10
2016,07,24,05,58,12.10
2016,07,24,05,59,12.10
2016,07,24,06,00,12.20
2016,07,24,06,01,12.20
2016,07,24,06,02,12.20
2016,07,24,06,03,12.20
2016,07,24,06,04,12.20
2016,07,24,06,05,12.20
2016,07,24,06,06,12.20
2016,07,24,06,07,12.20
2016,07,24,06,08,12.20
2016,07,24,06,09,12.20
2016,07,24,06,10,12.30
2016,07,24,06,11,12.30
2016,07,24,06,12,12.30
2016,07,24,06,13,12.30
2016,07,24,06,14,12.30
2016,07,24,06,15,12.30
2016,07,24,06,16,12.30
2016,07,24,06,17,12.30
2016,07,24,06,18,12.30
2016,07,24,06,19,12.30
2016,07,24,06,20,12.30
2016,07,24,06,21,12.30
2016,07,24,06,22,12.30
2016,07,24,06,23,12.30
2016,07,24,06,24,12.30
2016,07,24,06,25,12.40
2016,07,24,06,26,12.50
2016,07,24,06,27,12.50
2016,07,24,06,28,12.50
2016,07,24,06,29,12.60
2016,07,24,06,30,12.60
2016,07,24,06,31,12.60
2016,07,24,06,32,12.60
2016,07,24,06,33,12.60
2016,07,24,06,34,12.70
2016,07,24,06,35,12.70
2016,07,24,06,36,12.70
2016,07,24,06,37,12.70
2016,07,24,06,38,12.80
2016,07,24,06,39,12.80
2016,07,24,06,40,12.80
2016,07,24,06,41,12.80
2016,07,24,06,42,12.80
2016,07,24,06,43,12.80
2016,07,24,06,44,12.80
2016,07,24,06,45,12.80
2016,07,24,06,46,12.80
2016,07,24,06,47,12.80
2016,07,24,06,48,12.80
2016,07,24,06,49,12.80
2016,07,24,06,50,12.80
2016,07,24,06,51,12.80
2016,07,24,06,52,12.80
2016,07,24,06,53,12.80
2016,07,24,06,54,12.80
2016,07,24,06,55,12.80
2016,07,24,06,56,12.80
2016,07,24,06,57,12.80
2016,07,24,06,58,12.80
2016,07,24,06,59,12.80
2016,07,24,07,00,12.80
2016,07,24,07,01,12.80
2016,07,24,07,02,12.80
2016,07,24,07,03,12.80
2016,07,24,07,04,12.80
2016,07,24,07,05,12.80
2016,07,24,07,06,12.80
2016,07,24,07,07,12.80
2016,07,24,07,08,12.80
2016,07,24,07,09,12.80
2016,07,24,07,10,12.80
2016,07,24,07,11,12.80
2016,07,24,07,12,12.80
2016,07,24,07,13,12.80
2016,07,24,07,14,12.80
2016,07,24,07,15,12.70
2016,07,24,07,16,12.70
2016,07,24,07,17,12.70
2016,07,24,07,18,12.70
2016,07,24,07,19,12.70
2016,07,24,07,20,12.70
2016,07,24,07,21,12.70
2016,07,24,07,22,12.70
2016,07,24,07,23,12.70
2016,07,24,07,24,12.70
2016,07,24,07,25,12.80
2016,07,24,07,26,12.80
2016,07,24,07,27,12.80
2016,07,24,07,28,12.90
2016,07,24,07,29,12.90
2016,07,24,07,30,13.00
2016,07,24,07,31,13.00
2016,07,24,07,32,13.10
2016,07,24,07,33,13.10
2016,07,24,07,34,13.20
2016,07,24,07,35,13.20
2016,07,24,07,36,13.30
2016,07,24,07,37,13.30
2016,07,24,07,38,13.40
2016,07,24,07,39,13.50
2016,07,24,07,40,13.50
2016,07,24,07,41,13.50
2016,07,24,07,42,13.60
2016,07,24,07,43,13.70
2016,07,24,07,44,13.70
2016,07,24,07,45,13.70
2016,07,24,07,46,13.80
2016,07,24,07,47,13.90
2016,07,24,07,48,13.90
2016,07,24,07,49,13.90
2016,07,24,07,50,13.90
2016,07,24,07,51,14.00
2016,07,24,07,52,14.00
2016,07,24,07,53,14.10
2016,07,24,07,54,14.10
2016,07,24,07,55,14.20
2016,07,24,07,56,14.20
2016,07,24,07,57,14.30
2016,07,24,07,58,14.40
2016,07,24,07,59,14.50
2016,07,24,08,00,14.60
2016,07,24,08,01,14.60
2016,07,24,08,02,14.70
2016,07,24,08,03,14.70
2016,07,24,08,04,14.80
2016,07,24,08,05,14.80
2016,07,24,08,06,14.90
2016,07,24,08,07,14.90
2016,07,24,08,08,15.00
2016,07,24,08,09,15.00
2016,07,24,08,10,15.10
2016,07,24,08,11,15.20
2016,07,24,08,12,15.20
2016,07,24,08,13,15.30
2016,07,24,08,14,15.30
2016,07,24,08,15,15.40
2016,07,24,08,16,15.50
2016,07,24,08,17,15.60
2016,07,24,08,18,15.70
2016,07,24,08,19,15.70
2016,07,24,08,20,15.80
2016,07,24,08,21,15.80
2016,07,24,08,22,15.90
2016,07,24,08,23,15.90
2016,07,24,08,24,16.00
2016,07,24,08,25,16.10
2016,07,24,08,26,16.10
2016,07,24,08,27,16.20
2016,07,24,08,28,16.30
2016,07,24,08,29,16.40
2016,07,24,08,30,16.60
2016,07,24,08,31,16.70
2016,07,24,08,32,16.80
2016,07,24,08,33,16.80
2016,07,24,08,34,16.90
2016,07,24,08,35,17.00
2016,07,24,08,36,17.20
2016,07,24,08,37,17.30
2016,07,24,08,38,17.50
2016,07,24,08,39,17.60
2016,07,24,08,40,17.70
2016,07,24,08,41,17.90
2016,07,24,08,42,17.90
2016,07,24,08,43,18.00
2016,07,24,08,44,18.20
2016,07,24,08,45,18.20
2016,07,24,08,46,18.30
2016,07,24,08,47,18.30
2016,07,24,08,48,18.40
2016,07,24,08,49,18.50
2016,07,24,08,50,18.50
2016,07,24,08,51,18.60
2016,07,24,08,52,18.60
2016,07,24,08,53,18.70
2016,07,24,08,54,18.70
2016,07,24,08,55,18.80
2016,07,24,08,56,18.90
2016,07,24,08,57,18.90
2016,07,24,08,58,19.00
2016,07,24,08,59,19.10
2016,07,24,09,00,19.30
2016,07,24,09,01,19.40
2016,07,24,09,02,19.50
2016,07,24,09,03,19.50
2016,07,24,09,04,19.60
2016,07,24,09,05,19.70
2016,07,24,09,06,19.80
2016,07,24,09,07,19.90
2016,07,24,09,08,20.00
2016,07,24,09,09,20.10
2016,07,24,09,10,20.20
2016,07,24,09,11,20.20
2016,07,24,09,12,20.20
2016,07,24,09,13,20.20
2016,07,24,09,14,20.30
2016,07,24,09,15,20.30
2016,07,24,09,16,20.40
2016,07,24,09,17,20.40
2016,07,24,09,18,20.50
2016,07,24,09,19,20.50
2016,07,24,09,20,20.60
2016,07,24,09,21,20.60
2016,07,24,09,22,20.60
2016,07,24,09,23,20.70
2016,07,24,09,24,20.70
2016,07,24,09,25,20.80
2016,07,24,09,26,20.90
2016,07,24,09,27,20.90
2016,07,24,09,28,21.00
2016,07,24,09,29,21.00
2016,07,24,09,30,21.10
2016,07,24,09,31,21.10
2016,07,24,09,32,21.20
2016,07,24,09,33,21.20
2016,07,24,09,34,21.30
2016,07,24,09,35,21.30
2016,07,24,09,36,21.30
2016,07,24,09,37,21.30
2016,07,24,09,38,21.30
2016,07,24,09,39,21.30
2016,07,24,09,40,21.40
2016,07,24,09,41,21.50
2016,07,24,09,42,21.60
2016,07,24,09,43,21.60
2016,07,24,09,44,21.70
2016,07,24,09,45,21.80
2016,07,24,09,46,21.90
2016,07,24,09,47,21.90
2016,07,24,09,48,22.00
2016,07,24,09,49,22.00
2016,07,24,09,50,22.00
2016,07,24,09,51,22.00
2016,07,24,09,52,22.00
2016,07,24,09,53,22.00
2016,07,24,09,54,22.00
2016,07,24,09,55,22.00
2016,07,24,09,56,22.00
2016,07,24,09,57,22.00
2016,07,24,09,58,22.10
2016,07,24,09,59,22.20
2016,07,24,10,00,22.20
2016,07,24,10,01,22.30
2016,07,24,10,02,22.30
2016,07,24,10,03,22.30
2016,07,24,10,04,22.30
2016,07,24,10,05,22.20
2016,07,24,10,06,22.20
2016,07,24,10,07,22.30
2016,07,24,10,08,22.30
2016,07,24,10,09,22.30
2016,07,24,10,10,22.40
2016,07,24,10,11,22.40
2016,07,24,10,12,22.40
2016,07,24,10,13,22.40
2016,07,24,10,14,22.50
2016,07,24,10,15,22.50
2016,07,24,10,16,22.50
2016,07,24,10,17,22.50
2016,07,24,10,18,22.60
2016,07,24,10,19,22.70
2016,07,24,10,20,22.70
2016,07,24,10,21,22.70
2016,07,24,10,22,22.80
2016,07,24,10,23,22.90
2016,07,24,10,24,22.90
2016,07,24,10,25,22.90
2016,07,24,10,26,23.00
2016,07,24,10,27,23.10
2016,07,24,10,28,23.10
2016,07,24,10,29,23.10
2016,07,24,10,30,23.20
2016,07,24,10,31,23.30
2016,07,24,10,32,23.30
2016,07,24,10,33,23.30
2016,07,24,10,34,23.40
2016,07,24,10,35,23.40
2016,07,24,10,36,23.40
2016,07,24,10,37,23.50
2016,07,24,10,38,23.60
2016,07,24,10,39,23.60
2016,07,24,10,40,23.60
2016,07,24,10,41,23.70
2016,07,24,10,42,23.70
2016,07,24,10,43,23.70
2016,07,24,10,44,23.80
2016,07,24,10,45,23.90
2016,07,24,10,46,24.00
2016,07,24,10,47,24.10
2016,07,24,10,48,24.10
2016,07,24,10,49,24.10
2016,07,24,10,50,24.00
2016,07,24,10,51,23.90
2016,07,24,10,52,23.90
2016,07,24,10,53,24.00
2016,07,24,10,54,24.10
2016,07,24,10,55,24.00
2016,07,24,10,56,23.80
2016,07,24,10,57,23.70
2016,07,24,10,58,23.50
2016,07,24,10,59,23.40
2016,07,24,11,00,23.40
2016,07,24,11,01,23.40
2016,07,24,11,02,23.40
2016,07,24,11,03,23.40
2016,07,24,11,04,23.50
2016,07,24,11,05,23.50
2016,07,24,11,06,23.40
2016,07,24,11,07,23.30
2016,07,24,11,08,23.20
2016,07,24,11,09,22.90
2016,07,24,11,10,22.60
2016,07,24,11,11,22.50
2016,07,24,11,12,22.30
2016,07,24,11,13,22.30
2016,07,24,11,14,22.30
2016,07,24,11,15,22.30
2016,07,24,11,16,22.30
2016,07,24,11,17,22.40
2016,07,24,11,18,22.60
2016,07,24,11,19,22.70
2016,07,24,11,20,22.80
2016,07,24,11,21,22.90
2016,07,24,11,22,23.10
2016,07,24,11,23,23.30
2016,07,24,11,24,23.30
2016,07,24,11,25,23.30
2016,07,24,11,26,23.30
2016,07,24,11,27,23.30
2016,07,24,11,28,23.30
2016,07,24,11,29,23.20
2016,07,24,11,30,23.20
2016,07,24,11,31,23.20
2016,07,24,11,32,23.20
2016,07,24,11,33,23.20
2016,07,24,11,34,23.30
2016,07,24,11,35,23.30
2016,07,24,11,36,23.50
2016,07,24,11,37,23.70
2016,07,24,11,38,23.70
2016,07,24,11,39,23.90
2016,07,24,11,40,23.90
2016,07,24,11,41,24.00
2016,07,24,11,42,24.10
2016,07,24,11,43,24.10
2016,07,24,11,44,24.10
2016,07,24,11,45,24.10
2016,07,24,11,46,24.10
2016,07,24,11,47,24.10
2016,07,24,11,48,24.10
2016,07,24,11,49,24.00
2016,07,24,11,50,23.80
2016,07,24,11,51,23.70
2016,07,24,11,52,23.70
2016,07,24,11,53,23.70
2016,07,24,11,54,23.70
2016,07,24,11,55,23.70
2016,07,24,11,56,23.70
2016,07,24,11,57,23.70
2016,07,24,11,58,23.70
2016,07,24,11,59,23.70
2016,07,24,12,00,23.60
2016,07,24,12,01,23.70
2016,07,24,12,02,23.70
2016,07,24,12,03,23.70
2016,07,24,12,04,23.70
2016,07,24,12,05,23.80
2016,07,24,12,06,23.90
2016,07,24,12,07,24.00
2016,07,24,12,08,24.10
2016,07,24,12,09,24.10
2016,07,24,12,10,24.20
2016,07,24,12,11,24.20
2016,07,24,12,12,24.20
2016,07,24,12,13,24.30
2016,07,24,12,14,24.40
2016,07,24,12,15,24.50
2016,07,24,12,16,24.60
2016,07,24,12,17,24.70
2016,07,24,12,18,24.80
2016,07,24,12,19,24.90
2016,07,24,12,20,24.90
2016,07,24,12,21,24.80
2016,07,24,12,22,24.70
2016,07,24,12,23,24.70
2016,07,24,12,24,24.70
2016,07,24,12,25,24.70
2016,07,24,12,26,24.70
2016,07,24,12,27,24.80
2016,07,24,12,28,24.90
2016,07,24,12,29,24.90
2016,07,24,12,30,24.90
2016,07,24,12,31,24.90
2016,07,24,12,32,24.90
2016,07,24,12,33,24.90
2016,07,24,12,34,24.80
2016,07,24,12,35,24.90
2016,07,24,12,36,24.80
2016,07,24,12,37,24.80
2016,07,24,12,38,24.80
2016,07,24,12,39,24.80
2016,07,24,12,40,24.70
2016,07,24,12,41,24.60
2016,07,24,12,42,24.60
2016,07,24,12,43,24.50
2016,07,24,12,44,24.50
2016,07,24,12,45,24.50
2016,07,24,12,46,24.50
2016,07,24,12,47,24.60
2016,07,24,12,48,24.70
2016,07,24,12,49,24.70
2016,07,24,12,50,24.80
2016,07,24,12,51,24.80
2016,07,24,12,52,24.90
2016,07,24,12,53,24.90
2016,07,24,12,54,24.70
2016,07,24,12,55,24.50
2016,07,24,12,56,24.40
2016,07,24,12,57,24.40
2016,07,24,12,58,24.40
2016,07,24,12,59,24.30
2016,07,24,13,00,24.40
2016,07,24,13,01,24.50
2016,07,24,13,02,24.50
2016,07,24,13,03,24.50
2016,07,24,13,04,24.50
2016,07,24,13,05,24.50
2016,07,24,13,06,24.40
2016,07,24,13,07,24.30
2016,07,24,13,08,24.20
2016,07,24,13,09,24.20
2016,07,24,13,10,24.20
2016,07,24,13,11,24.20
2016,07,24,13,12,24.30
2016,07,24,13,13,24.40
2016,07,24,13,14,24.50
2016,07,24,13,15,24.60
2016,07,24,13,16,24.70
2016,07,24,13,17,24.80
2016,07,24,13,18,24.80
2016,07,24,13,19,24.80
2016,07,24,13,20,24.80
2016,07,24,13,21,24.80
2016,07,24,13,22,24.80
2016,07,24,13,23,24.90
2016,07,24,13,24,25.00
2016,07,24,13,25,25.10
2016,07,24,13,26,25.30
2016,07,24,13,27,25.40
2016,07,24,13,28,25.50
2016,07,24,13,29,25.40
2016,07,24,13,30,25.40
2016,07,24,13,31,25.30
2016,07,24,13,32,25.30
2016,07,24,13,33,25.20
2016,07,24,13,34,25.10
2016,07,24,13,35,25.00
2016,07,24,13,36,25.00
2016,07,24,13,37,24.90
2016,07,24,13,38,24.80
2016,07,24,13,39,24.80
2016,07,24,13,40,24.80
2016,07,24,13,41,24.80
2016,07,24,13,42,24.80
2016,07,24,13,43,24.90
2016,07,24,13,44,24.90
2016,07,24,13,45,24.80
2016,07,24,13,46,24.80
2016,07,24,13,47,24.80
2016,07,24,13,48,24.90
2016,07,24,13,49,25.00
2016,07,24,13,50,25.20
2016,07,24,13,51,25.20
2016,07,24,13,52,25.20
2016,07,24,13,53,25.10
2016,07,24,13,54,25.10
2016,07,24,13,55,25.20
2016,07,24,13,56,25.20
2016,07,24,13,57,25.30
2016,07,24,13,58,25.30
2016,07,24,13,59,25.30
2016,07,24,14,00,25.30
2016,07,24,14,01,25.30
2016,07,24,14,02,25.20
2016,07,24,14,03,25.30
2016,07,24,14,04,25.30
2016,07,24,14,05,25.40
2016,07,24,14,06,25.40
2016,07,24,14,07,25.40
2016,07,24,14,08,25.40
2016,07,24,14,09,25.40
2016,07,24,14,10,25.30
2016,07,24,14,11,25.10
2016,07,24,14,12,25.10
2016,07,24,14,13,25.20
2016,07,24,14,14,25.20
2016,07,24,14,15,25.30
2016,07,24,14,16,25.40
2016,07,24,14,17,25.50
2016,07,24,14,18,25.40
2016,07,24,14,19,25.40
2016,07,24,14,20,25.50
2016,07,24,14,21,25.50
2016,07,24,14,22,25.50
2016,07,24,14,23,25.60
2016,07,24,14,24,25.60
2016,07,24,14,25,25.70
2016,07,24,14,26,25.80
2016,07,24,14,27,25.90
2016,07,24,14,28,25.90
2016,07,24,14,29,26.00
2016,07,24,14,30,26.10
2016,07,24,14,31,26.10
2016,07,24,14,32,26.10
2016,07,24,14,33,26.00
2016,07,24,14,34,25.90
2016,07,24,14,35,25.90
2016,07,24,14,36,25.90
2016,07,24,14,37,25.80
2016,07,24,14,38,25.70
2016,07,24,14,39,25.60
2016,07,24,14,40,25.50
2016,07,24,14,41,25.50
2016,07,24,14,42,25.30
2016,07,24,14,43,25.20
2016,07,24,14,44,25.10
2016,07,24,14,45,25.20
2016,07,24,14,46,25.10
2016,07,24,14,47,25.10
2016,07,24,14,48,25.20
2016,07,24,14,49,25.30
2016,07,24,14,50,25.40
2016,07,24,14,51,25.40
2016,07,24,14,52,25.50
2016,07,24,14,53,25.50
2016,07,24,14,54,25.50
2016,07,24,14,55,25.60
2016,07,24,14,56,25.70
2016,07,24,14,57,25.80
2016,07,24,14,58,25.90
2016,07,24,14,59,26.00
2016,07,24,15,00,26.00
2016,07,24,15,01,26.10
2016,07,24,15,02,26.10
2016,07,24,15,03,26.00
2016,07,24,15,04,25.90
2016,07,24,15,05,25.80
2016,07,24,15,06,25.60
2016,07,24,15,07,25.60
2016,07,24,15,08,25.60
2016,07,24,15,09,25.70
2016,07,24,15,10,25.70
2016,07,24,15,11,25.70
2016,07,24,15,12,25.60
2016,07,24,15,13,25.40
2016,07,24,15,14,25.10
2016,07,24,15,15,25.00
2016,07,24,15,16,25.00
2016,07,24,15,17,24.90
2016,07,24,15,18,24.80
2016,07,24,15,19,24.80
2016,07,24,15,20,24.80
2016,07,24,15,21,24.80
2016,07,24,15,22,24.80
2016,07,24,15,23,24.80
2016,07,24,15,24,24.70
2016,07,24,15,25,24.80
2016,07,24,15,26,24.90
2016,07,24,15,27,24.90
2016,07,24,15,28,25.00
2016,07,24,15,29,24.90
2016,07,24,15,30,24.90
2016,07,24,15,31,25.00
2016,07,24,15,32,25.00
2016,07,24,15,33,25.00
2016,07,24,15,34,25.00
2016,07,24,15,35,25.00
2016,07,24,15,36,25.00
2016,07,24,15,37,25.00
2016,07,24,15,38,25.00
2016,07,24,15,39,25.00
2016,07,24,15,40,25.00
2016,07,24,15,41,25.00
2016,07,24,15,42,25.00
2016,07,24,15,43,25.00
2016,07,24,15,44,25.00
2016,07,24,15,45,25.00
2016,07,24,15,46,25.00
2016,07,24,15,47,25.00
2016,07,24,15,48,25.10
2016,07,24,15,49,25.10
2016,07,24,15,50,25.20
2016,07,24,15,51,25.30
2016,07,24,15,52,25.30
2016,07,24,15,53,25.40
2016,07,24,15,54,25.50
2016,07,24,15,55,25.60
2016,07,24,15,56,25.70
2016,07,24,15,57,25.70
2016,07,24,15,58,25.80
2016,07,24,15,59,25.90
2016,07,24,16,00,25.90
2016,07,24,16,01,26.00
2016,07,24,16,02,26.00
2016,07,24,16,03,26.00
2016,07,24,16,04,25.90
2016,07,24,16,05,25.70
2016,07,24,16,06,25.60
2016,07,24,16,07,25.50
2016,07,24,16,08,25.40
2016,07,24,16,09,25.40
2016,07,24,16,10,25.30
2016,07,24,16,11,25.20
2016,07,24,16,12,25.10
2016,07,24,16,13,25.00
2016,07,24,16,14,24.90
2016,07,24,16,15,24.80
2016,07,24,16,16,24.80
2016,07,24,16,17,24.70
2016,07,24,16,18,24.70
2016,07,24,16,19,24.70
2016,07,24,16,20,24.70
2016,07,24,16,21,24.70
2016,07,24,16,22,24.70
2016,07,24,16,23,24.70
2016,07,24,16,24,24.70
2016,07,24,16,25,24.70
2016,07,24,16,26,24.70
2016,07,24,16,27,24.70
2016,07,24,16,28,24.70
2016,07,24,16,29,24.60
2016,07,24,16,30,24.60
2016,07,24,16,31,24.60
2016,07,24,16,32,24.50
2016,07,24,16,33,24.50
2016,07,24,16,34,24.50
2016,07,24,16,35,24.50
2016,07,24,16,36,24.50
2016,07,24,16,37,24.40
2016,07,24,16,38,24.40
2016,07,24,16,39,24.40
2016,07,24,16,40,24.40
2016,07,24,16,41,24.40
2016,07,24,16,42,24.40
2016,07,24,16,43,24.40
2016,07,24,16,44,24.40
2016,07,24,16,45,24.40
2016,07,24,16,46,24.40
2016,07,24,16,47,24.40
2016,07,24,16,48,24.40
2016,07,24,16,49,24.40
2016,07,24,16,50,24.40
2016,07,24,16,51,24.30
2016,07,24,16,52,24.30
2016,07,24,16,53,24.30
2016,07,24,16,54,24.30
2016,07,24,16,55,24.30
2016,07,24,16,56,24.30
2016,07,24,16,57,24.20
2016,07,24,16,58,24.20
2016,07,24,16,59,24.20
2016,07,24,17,00,24.20
2016,07,24,17,01,24.10
2016,07,24,17,02,24.10
2016,07,24,17,03,24.10
2016,07,24,17,04,24.10
2016,07,24,17,05,24.20
2016,07,24,17,06,24.20
2016,07,24,17,07,24.20
2016,07,24,17,08,24.20
2016,07,24,17,09,24.10
2016,07,24,17,10,24.10
2016,07,24,17,11,24.10
2016,07,24,17,12,24.10
2016,07,24,17,13,24.10
2016,07,24,17,14,24.10
2016,07,24,17,15,24.10
2016,07,24,17,16,24.10
2016,07,24,17,17,24.10
2016,07,24,17,18,24.10
2016,07,24,17,19,24.10